DW6178 Weather Reports


Display with metric or nautical units.
time (UTC)temp
F
wind
direction
speed
MPH
gust
MPH
rain 1hr
in
rain 24hr
in
rain mn
in
humidity
%
barometer
mb
20260505070031 37 222 1.0 5.0 0.06 0.12 0.12 94 1014.6
20260505064531 37 195 1.0 6.0 0.04 0.09 0.09 94 1014.6
20260505063012 37 232 1.0 6.0 0.04 0.09 0.09 94 1014.8
20260505061557 38 287 1.0 2.0 0.03 0.08 0.08 94 1014.8
20260505060052 38 297 0.0 2.0 0.02 0.06 0.06 94 1014.9
20260505054557 38 293 1.0 3.0 0.02 0.05 0.05 94 1015.1
20260505053036 38 288 1.0 2.0 0.03 0.05 0.05 94 1015.2
20260505051517 38 277 1.0 3.0 0.04 0.05 0.05 94 1015.3
20260505041537 37 282 1.0 3.0 0.01 0.01 0.01 94 1015.4
20260505040037 36 297 1.0 3.0 0.00 0.00 0.00 93 1015.5
20260505034519 36 285 1.0 3.0 0.00 0.00 0.00 93 1015.2
20260505033021 37 291 1.0 4.0 0.00 0.00 0.00 94 1015.3
20260505031611 38 278 1.0 3.0 0.00 0.00 0.00 94 1014.9
20260505030059 38 292 1.0 3.0 0.00 0.00 0.00 94 1015.0
20260505024542 38 296 2.0 4.0 0.00 0.00 0.00 93 1014.8
20260505023040 38 277 2.0 5.0 0.00 0.00 0.00 93 1014.9
20260505021525 38 295 1.0 4.0 0.00 0.00 0.00 93 1014.9
20260505020028 38 263 1.0 8.0 0.00 0.00 0.00 93 1014.9
20260505014501 39 250 1.0 5.0 0.00 0.00 0.00 93 1015.2
20260505013000 39 165 0.0 4.0 0.00 0.00 0.00 93 1015.2
20260505011543 39 289 1.0 6.0 0.00 0.00 0.00 93 1015.1
20260505010042 39 162 2.0 6.0 0.00 0.00 0.00 93 1015.2
20260505004542 40 288 1.0 4.0 0.00 0.00 0.00 93 1015.3
20260505003022 40 293 1.0 4.0 0.00 0.00 0.00 93 1015.1
20260505001506 40 183 1.0 7.0 0.00 0.00 0.00 93 1015.1
20260505000008 40 179 0.0 11.0 0.00 0.00 0.00 93 1015.1
20260504234554 40 281 1.0 5.0 0.00 0.00 0.00 93 1015.1
20260504233056 40 295 1.0 7.0 0.00 0.00 0.00 93 1015.1
20260504231552 40 181 2.0 6.0 0.00 0.00 0.00 93 1015.0
20260504230105 40 297 2.0 8.0 0.00 0.00 0.00 93 1014.9
20260504224552 40 246 2.0 5.0 0.00 0.00 0.00 93 1015.1
20260504223051 41 233 1.0 7.0 0.00 0.00 0.00 93 1015.1
20260504221601 41 165 0.0 4.0 0.00 0.00 0.00 93 1015.4
20260504220050 41 253 1.0 3.0 0.00 0.00 0.00 93 1015.3
20260504214542 41 163 1.0 5.0 0.00 0.00 0.00 93 1015.5
20260504213042 41 288 1.0 5.0 0.00 0.00 0.00 93 1015.7
20260504211535 41 289 1.0 5.0 0.00 0.00 0.00 93 1015.7
20260504210034 42 194 2.0 8.0 0.00 0.00 0.00 93 1015.4
20260504204537 41 198 1.0 5.0 0.00 0.00 0.00 93 1015.5
20260504203031 41 201 1.0 6.0 0.00 0.00 0.00 93 1015.5
20260504201530 41 195 2.0 5.0 0.00 0.00 0.00 93 1015.6
20260504200030 41 203 0.0 5.0 0.00 0.00 0.00 93 1015.4
20260504194511 40 238 2.0 6.0 0.00 0.00 0.00 93 1015.5
20260504193010 40 205 1.0 6.0 0.00 0.00 0.00 93 1015.5
20260504191611 39 248 1.0 6.0 0.00 0.00 0.00 93 1015.3
20260504190048 39 241 2.0 6.0 0.00 0.00 0.00 93 1015.3
20260504184548 39 248 1.0 4.0 0.00 0.00 0.00 93 1015.3
20260504183029 39 158 1.0 7.0 0.00 0.00 0.00 93 1014.9
20260504181531 38 204 2.0 8.0 0.00 0.00 0.00 93 1015.0
20260504180010 38 200 2.0 8.0 0.00 0.00 0.00 93 1014.6
20260504174506 38 200 2.0 6.0 0.00 0.00 0.00 93 1014.4
20260504173047 38 226 3.0 7.0 0.00 0.00 0.00 93 1014.2
20260504171545 38 191 2.0 7.0 0.00 0.00 0.00 93 1013.9
20260504081544 39 214 2.0 8.0 0.00 0.00 0.00 93 1011.1